This demonstration page uses our WeatherBlox Daily Observations layout. Learn more.

Left ArrowRight Arrow

39.92423, -83.80882

Hourly Observations for October 16, 2021

Temp ( °F °C ) Dew Point ( °F °C ) Humidity (%) Winds ( mph kmh ) Pressure ( in mb ) Visibility ( mi km ) Precip ( " mm )
12:05 am 00:05 Cloudy with Rain 63 17 N/A N/A N 7 11 29.76 1008 7 11 N/A
12:16 am 00:16 Cloudy with Rain 63 17 N/A N/A NNW 8 13 29.78 1009 7 11 N/A
12:41 am 00:41 Cloudy with Heavy Rain 61 16 N/A N/A NW 13 20 29.77 1008 6 10 N/A
12:56 am 00:56 Cloudy with Rain 61 16 N/A N/A NNW 10 17 29.76 1008 9 14 N/A
1:31 am 01:31 Cloudy with Light Rain 61 16 N/A N/A WNW 9 15 29.78 1008 8 13 N/A
1:56 am 01:56 Cloudy with Light Rain 59 15 N/A N/A NW 10 17 29.79 1009 6 10 N/A
2:56 am 02:56 Cloudy with Light Rain 55 13 N/A N/A NNW 17 28 29.77 1008 10 16 N/A
3:19 am 03:19 Cloudy 55 13 N/A N/A NNW 13 20 29.77 1008 10 16 N/A
3:52 am 03:52 Cloudy 55 13 55 13 100 100 NNW 17 28 29.81 1009 10 16 N/A
3:56 am 03:56 Cloudy 55 12.8 55 12.8 100 100 NNW 16 26 29.80 1009 10 16 N/A
4:46 am 04:46 Cloudy with Light Rain 54 12 N/A N/A NNW 13 20 29.81 1010 10 16 N/A
4:56 am 04:56 Cloudy with Light Rain 54 12 N/A N/A NNW 14 22 29.80 1009 10 16 N/A
5:08 am 05:08 Cloudy 54 12 N/A N/A NW 14 22 29.82 1010 10 16 N/A
5:36 am 05:36 Cloudy 54 12 54 12 100 100 NW 15 24 29.83 1010 10 16 N/A
5:47 am 05:47 Cloudy 54 12 54 12 100 100 NW 12 19 29.83 1010 10 16 N/A
5:54 am 05:54 Cloudy 54 12 54 12 100 100 NW 10 17 29.84 1011 10 16 N/A
5:56 am 05:56 Cloudy 53 11.7 53 11.7 100 100 NW 10 17 29.83 1010 10 16 N/A
6:56 am 06:56 Cloudy 53 11.7 53 11.7 100 100 WNW 13 20 29.86 1011 10 16 N/A
7:26 am 07:26 Cloudy with Light Rain 52 11 52 11 100 100 NW 9 15 29.89 1012 10 16 N/A
7:52 am 07:52 Cloudy 52 11 52 11 100 100 WNW 10 17 29.90 1012 10 16 N/A
7:53 am 07:53 Cloudy 52 11.1 52 11.1 100 100 WNW 10 17 29.89 1012 10 16 N/A
8:56 am 08:56 Cloudy 52 11.1 52 11.1 100 100 W 9 15 29.93 1013 10 16 N/A
9:56 am 09:56 Mostly Cloudy 53 11.7 50 10 89 89 W 15 24 29.95 1014 10 16 N/A
10:03 am 10:03 Cloudy 54 12 52 11 94 94 WNW 13 20 29.95 1014 10 16 N/A
10:45 am 10:45 Partly Cloudy 55 13 48 9 77 77 WNW 14 22 29.96 1015 10 16 N/A
10:56 am 10:56 Mostly Cloudy 56 13.3 49 9.4 77 77 WNW 16 26 29.96 1015 10 16 N/A
11:56 am 11:56 Mostly Cloudy 58 14.4 49 9.4 72 72 WNW 18 30 29.98 1015 10 16 N/A
12:06 pm 12:06 Mostly Cloudy 55 13 46 8 72 72 WNW 16 26 29.98 1015 10 16 N/A
12:21 pm 12:21 Mostly Cloudy 57 14 46 8 67 67 NW 16 26 29.98 1015 10 16 N/A
12:29 pm 12:29 Mostly Cloudy 55 13 46 8 72 72 WNW 13 20 29.98 1015 10 16 N/A
12:56 pm 12:56 Mostly Cloudy 58 14.4 46 7.8 65 65 WNW 14 22 29.99 1016 10 16 N/A
1:56 pm 13:56 Mostly Cloudy 56 13.3 43 6.1 62 62 WNW 15 24 29.99 1016 10 16 N/A
2:56 pm 14:56 Mostly Sunny 58 14.4 40 4.4 51 51 WNW 14 22 29.99 1016 10 16 N/A
3:56 pm 15:56 Mostly Cloudy 60 15.6 38 3.3 44 44 W 18 30 30.00 1016 10 16 N/A
4:56 pm 16:56 Mostly Cloudy 57 13.9 37 2.8 47 47 W 18 30 30.02 1017 10 16 N/A
5:56 pm 17:56 Cloudy 55 12.8 37 2.8 51 51 WNW 16 26 30.04 1017 10 16 N/A
6:56 pm 18:56 Cloudy 54 12.2 38 3.3 55 55 WNW 10 17 30.05 1018 10 16 N/A
7:56 pm 19:56 Cloudy 53 11.7 40 4.4 61 61 W 7 11 30.07 1018 10 16 N/A
8:56 pm 20:56 Cloudy 52 11.1 42 5.6 69 69 W 7 11 30.08 1019 10 16 N/A
9:56 pm 21:56 Partly Cloudy 50 10 41 5 71 71 WNW 9 15 30.10 1019 10 16 N/A
10:56 pm 22:56 Clear 47 8.3 42 5.6 83 83 W 8 13 30.11 1020 10 16 N/A
11:56 pm 23:56 Cloudy 48 8.9 41 5 77 77 W 8 13 30.11 1020 10 16 N/A

Powered by AerisWeather